Weather History for Needles, CA

Change the Weather History Date:

Tuesday, February 19, 2013

  Actual Average Record
Temperature  
Mean Temperature 58 °F -  
Max Temperature 69 °F 71 °F 89 °F (2014)
Min Temperature 46 °F 48 °F 33 °F (1952)
Degree Days  
Heating Degree Days 8    
Growing Degree Days 8 (Base 50)    
Moisture  
Dew Point 27 °F    
Average Humidity 31    
Maximum Humidity 42    
Minimum Humidity 16    
Precipitation  
Precipitation 0.00 in - - ()
Sea Level Pressure  
Sea Level Pressure 29.66 in    
Wind  
Wind Speed 9 mph (SSW)    
Max Wind Speed 21 mph    
Max Gust Speed 29 mph    
Visibility 10 miles    
Events      
Averages and records for this station are not official NWS values.
T = Trace of Precipitation, MM = Missing Value Source: NWS Daily Summary

Daily Weather History Graph

Daily Weather History Graph

Search for Another Location

Airport:

Trip Planner

Search our weather history database for the weather conditions in past years. The results will help you decide how hot, cold, wet, or windy it might be!

Date:

Astronomy

Feb. 19, 2013 Rise Set
Actual Time 6:19 AM PST 5:25 PM PST
Civil Twilight 5:53 AM PST 5:51 PM PST
Nautical Twilight 5:24 AM PST 6:20 PM PST
Astronomical Twilight 4:55 AM PST 6:50 PM PST
Moon 12:07 PM PST (2/19) 1:47 AM PST (2/19)
Length of Visible Light 11h 57m
Length of Day
11h 06m
Waxing Gibbous, 68% of the Moon is Illuminated
Feb 19
Waxing Gibbous
Feb 25
Full
Mar 4
Last Quarter
Mar 11
New
Mar 19
First Quarter

Hourly Weather History & Observations

Time (PST) Temp. Windchill Dew Point Humidity Pressure Visibility Wind Dir Wind Speed Gust Speed Precip Events Conditions
12:56 AM 51.1 °F - 21.9 °F 32% 29.81 in 10.0 mi West 8.1 mph - N/A   Clear
2:56 AM 48.9 °F - 23.0 °F 36% 29.76 in 10.0 mi NW 5.8 mph - N/A   Clear
4:56 AM 46.0 °F 43.9 °F 23.0 °F 40% 29.76 in 10.0 mi NW 4.6 mph - N/A   Clear
5:56 AM 46.0 °F - 23.0 °F 40% 29.76 in 10.0 mi Calm Calm - N/A   Clear
7:56 AM 54.0 °F - 25.0 °F 33% 29.75 in 10.0 mi North 3.5 mph - N/A   Clear
8:56 AM 55.0 °F - 25.0 °F 31% 29.75 in 10.0 mi Calm Calm - N/A   Clear
9:56 AM 63.0 °F - 25.0 °F 24% 29.74 in 10.0 mi SE 8.1 mph - N/A   Clear
10:56 AM 68.0 °F - 27.0 °F 21% 29.71 in 10.0 mi SSE 12.7 mph 21.9 mph N/A   Clear
11:56 AM 69.1 °F - 21.0 °F 16% 29.68 in 10.0 mi SSW 18.4 mph 24.2 mph N/A   Clear
12:56 PM 66.9 °F - 26.1 °F 21% 29.65 in 10.0 mi South 18.4 mph 25.3 mph N/A   Clear
1:56 PM 68.0 °F - 27.0 °F 21% 29.62 in 10.0 mi SSW 19.6 mph 25.3 mph N/A   Clear
2:56 PM 66.9 °F - 28.0 °F 23% 29.60 in 10.0 mi SSW 17.3 mph - N/A   Clear
4:56 PM 63.0 °F - 26.1 °F 25% 29.59 in 10.0 mi SSW 20.7 mph 28.8 mph N/A   Clear
6:56 PM 60.1 °F - 30.9 °F 33% 29.58 in 10.0 mi SSW 18.4 mph - N/A   Clear
7:56 PM 59.0 °F - 30.9 °F 35% 29.56 in 10.0 mi SSW 13.8 mph 24.2 mph N/A   Clear
8:56 PM 57.9 °F - 30.9 °F 36% 29.56 in 10.0 mi SSW 11.5 mph - N/A   Clear
9:56 PM 57.0 °F - 30.9 °F 37% 29.55 in 10.0 mi SW 8.1 mph - N/A   Clear
10:56 PM 57.0 °F - 33.1 °F 40% 29.55 in 10.0 mi SSW 12.7 mph - N/A   Partly Cloudy
11:56 PM 55.9 °F - 33.1 °F 42% 29.54 in 10.0 mi SSW 8.1 mph - N/A   Overcast